Time,TemperatureF,DewpointF,PressureIn,WindDirection,WindDirectionDegrees,WindSpeedMPH,WindSpeedGustMPH,Humidity,HourlyPrecipIn,Conditions,Clouds,dailyrainin,SoftwareType,DateUTC
2013-03-17 00:00:00,58.4,41.3,30.01,NNW,338,5.0,9.0,53,0.00,,CLR,0.00,VWS V13.01,2013-03-17 07:00:00,
2013-03-17 00:15:00,57.7,41.7,30.01,NNW,338,6.0,9.0,55,0.00,,CLR,0.00,VWS V13.01,2013-03-17 07:15:00,
2013-03-17 00:30:00,57.1,41.6,30.01,NNW,338,6.0,9.0,56,0.00,,CLR,0.00,VWS V13.01,2013-03-17 07:30:00,
2013-03-17 00:45:00,56.6,41.1,30.01,NW,315,5.0,9.0,56,0.00,,CLR,0.00,VWS V13.01,2013-03-17 07:45:00,
2013-03-17 01:00:00,56.5,41.0,30.02,NW,315,6.0,10.0,56,0.00,,CLR,0.00,VWS V13.01,2013-03-17 08:00:00,
2013-03-17 01:15:00,55.7,41.2,30.02,NW,315,4.0,7.0,58,0.00,,CLR,0.00,VWS V13.01,2013-03-17 08:15:00,
2013-03-17 01:30:00,55.2,41.1,30.02,NW,315,6.0,10.0,59,0.00,,CLR,0.00,VWS V13.01,2013-03-17 08:30:00,
2013-03-17 01:45:00,54.6,41.4,30.03,NW,315,2.0,7.0,61,0.00,,CLR,0.00,VWS V13.01,2013-03-17 08:45:00,
2013-03-17 02:00:00,53.3,41.0,30.03,NW,315,0.0,0.0,63,0.00,,CLR,0.00,VWS V13.01,2013-03-17 09:00:00,
2013-03-17 02:15:00,51.5,40.5,30.03,NW,315,1.0,5.0,66,0.00,,CLR,0.00,VWS V13.01,2013-03-17 09:15:00,
2013-03-17 02:30:00,50.7,40.2,30.03,NW,315,0.0,2.0,67,0.00,,CLR,0.00,VWS V13.01,2013-03-17 09:30:00,
2013-03-17 02:45:00,50.0,39.9,30.03,NW,315,0.0,0.0,68,0.00,,CLR,0.00,VWS V13.01,2013-03-17 09:45:00,
2013-03-17 03:00:00,49.3,39.6,30.03,NW,315,0.0,0.0,69,0.00,,CLR,0.00,VWS V13.01,2013-03-17 10:00:00,
2013-03-17 03:15:00,48.8,39.5,30.03,NNW,338,4.0,8.0,70,0.00,,CLR,0.00,VWS V13.01,2013-03-17 10:15:00,
2013-03-17 03:30:00,49.2,39.8,30.02,NNW,338,4.0,8.0,70,0.00,,CLR,0.00,VWS V13.01,2013-03-17 10:30:00,
2013-03-17 03:45:00,49.4,39.3,30.02,NNW,338,3.0,8.0,68,0.00,,CLR,0.00,VWS V13.01,2013-03-17 10:45:00,
2013-03-17 04:00:00,49.1,39.4,30.01,NNW,338,0.0,2.0,69,0.00,,CLR,0.00,VWS V13.01,2013-03-17 11:00:00,
2013-03-17 04:15:00,48.4,38.7,30.01,NNW,338,0.0,0.0,69,0.00,,CLR,0.00,VWS V13.01,2013-03-17 11:15:00,
2013-03-17 04:30:00,47.6,38.3,30.01,NNW,338,0.0,0.0,70,0.00,,CLR,0.00,VWS V13.01,2013-03-17 11:30:00,
2013-03-17 04:45:00,46.5,38.0,30.01,NNW,338,0.0,0.0,72,0.00,,CLR,0.00,VWS V13.01,2013-03-17 11:45:00,
2013-03-17 05:00:00,45.7,37.9,30.02,NNW,338,0.0,0.0,74,0.00,,CLR,0.00,VWS V13.01,2013-03-17 12:00:00,
2013-03-17 05:15:00,45.0,37.6,30.02,NNW,338,0.0,0.0,75,0.00,,CLR,0.00,VWS V13.01,2013-03-17 12:15:00,
2013-03-17 05:30:00,44.4,37.7,30.02,NNW,338,0.0,6.0,77,0.00,,CLR,0.00,VWS V13.01,2013-03-17 12:30:00,
2013-03-17 05:45:00,44.3,37.6,30.03,NNW,338,0.0,4.0,77,0.00,,CLR,0.00,VWS V13.01,2013-03-17 12:45:00,
2013-03-17 06:00:00,44.0,36.6,30.03,NNW,338,0.0,0.0,75,0.00,,CLR,0.00,VWS V13.01,2013-03-17 13:00:00,
2013-03-17 06:15:00,43.7,37.0,30.04,NNW,338,0.0,0.0,77,0.00,,CLR,0.00,VWS V13.01,2013-03-17 13:15:00,
2013-03-17 06:30:00,43.7,37.3,30.04,NNW,338,0.0,4.0,78,0.00,,CLR,0.00,VWS V13.01,2013-03-17 13:30:00,
2013-03-17 06:45:00,43.9,37.2,30.05,NW,315,1.0,6.0,77,0.00,,CLR,0.00,VWS V13.01,2013-03-17 13:45:00,
2013-03-17 07:00:00,43.8,37.1,30.04,NW,315,0.0,0.0,77,0.00,,CLR,0.00,VWS V13.01,2013-03-17 14:00:00,
2013-03-17 07:15:00,43.4,36.7,30.05,NW,315,0.0,0.0,77,0.00,,CLR,0.00,VWS V13.01,2013-03-17 14:15:00,
2013-03-17 07:30:00,43.1,36.7,30.06,NW,315,0.0,0.0,78,0.00,,CLR,0.00,VWS V13.01,2013-03-17 14:30:00,
2013-03-17 07:45:00,42.5,36.1,30.07,NW,315,0.0,6.0,78,0.00,,CLR,0.00,VWS V13.01,2013-03-17 14:45:00,
2013-03-17 08:00:00,42.1,36.4,30.07,NW,315,0.0,0.0,80,0.00,,CLR,0.00,VWS V13.01,2013-03-17 15:00:00,
2013-03-17 08:15:00,43.4,38.3,30.07,NNW,338,0.0,6.0,82,0.00,,CLR,0.00,VWS V13.01,2013-03-17 15:15:00,
2013-03-17 08:30:00,46.2,39.1,30.07,NNW,338,3.0,6.0,76,0.00,,CLR,0.00,VWS V13.01,2013-03-17 15:30:00,
2013-03-17 08:45:00,49.5,40.1,30.07,NNW,338,3.0,7.0,70,0.00,,CLR,0.00,VWS V13.01,2013-03-17 15:45:00,
2013-03-17 09:09:00,52.8,40.6,30.07,NW,315,3.0,8.0,63,0.00,,CLR,0.00,VWS V13.01,2013-03-17 16:09:00,
2013-03-17 09:15:00,55.1,41.0,30.08,NW,316,1.0,6.0,59,0.00,,CLR,0.00,VWS V13.01,2013-03-17 16:15:00,
2013-03-17 09:23:00,56.6,42.0,30.07,NW,315,1.0,5.0,58,0.00,,CLR,0.00,VWS V13.01,2013-03-17 16:23:00,
2013-03-17 09:29:00,57.4,41.4,30.07,NW,315,1.0,6.0,55,0.00,,CLR,0.00,VWS V13.01,2013-03-17 16:29:00,
2013-03-17 09:35:00,58.3,41.3,30.07,NW,315,4.0,7.0,53,0.00,,CLR,0.00,VWS V13.01,2013-03-17 16:35:00,
2013-03-17 09:40:00,59.3,40.2,30.07,NNW,328,5.0,10.0,49,0.00,,CLR,0.00,VWS V13.01,2013-03-17 16:40:00,
2013-03-17 09:48:00,60.6,38.0,30.08,NW,321,9.0,15.0,43,0.00,,CLR,0.00,VWS V13.01,2013-03-17 16:48:00,
2013-03-17 09:54:00,61.1,36.6,30.08,NW,316,9.0,15.0,40,0.00,,CLR,0.00,VWS V13.01,2013-03-17 16:54:00,
2013-03-17 10:00:00,61.2,36.1,30.08,NW,314,8.0,15.0,39,0.00,,CLR,0.00,VWS V13.01,2013-03-17 17:00:00,
2013-03-17 10:07:00,61.3,36.2,30.08,NNW,335,9.0,15.0,39,0.00,,CLR,0.00,VWS V13.01,2013-03-17 17:07:00,
2013-03-17 10:13:00,61.4,36.2,30.08,NNW,334,14.0,17.0,39,0.00,,CLR,0.00,VWS V13.01,2013-03-17 17:13:00,
2013-03-17 10:19:00,61.8,36.0,30.07,NNW,333,5.0,17.0,38,0.00,,CLR,0.00,VWS V13.01,2013-03-17 17:19:00,
2013-03-17 10:26:00,62.2,35.6,30.08,NNW,343,14.0,16.0,37,0.00,,CLR,0.00,VWS V13.01,2013-03-17 17:26:00,
2013-03-17 10:32:00,62.6,36.0,30.08,NW,304,16.0,18.0,37,0.00,,CLR,0.00,VWS V13.01,2013-03-17 17:32:00,
2013-03-17 10:38:00,62.9,36.2,30.08,NNW,335,9.0,17.0,37,0.00,,CLR,0.00,VWS V13.01,2013-03-17 17:38:00,
2013-03-17 10:44:00,63.3,35.2,30.08,NNW,340,13.0,19.0,35,0.00,,CLR,0.00,VWS V13.01,2013-03-17 17:44:00,
2013-03-17 10:50:00,63.8,35.7,30.08,NNW,337,11.0,19.0,35,0.00,,CLR,0.00,VWS V13.01,2013-03-17 17:50:00,
2013-03-17 10:55:00,63.9,35.7,30.08,NNW,339,8.0,17.0,35,0.00,,CLR,0.00,VWS V13.01,2013-03-17 17:55:00,
2013-03-17 11:03:00,64.2,34.5,30.08,NNW,331,12.0,19.0,33,0.00,,CLR,0.00,VWS V13.01,2013-03-17 18:03:00,
2013-03-17 11:09:00,64.5,34.0,30.08,NW,324,14.0,17.0,32,0.00,,CLR,0.00,VWS V13.01,2013-03-17 18:09:00,
2013-03-17 11:15:00,64.8,34.3,30.08,NNW,336,12.0,20.0,32,0.00,,CLR,0.00,VWS V13.01,2013-03-17 18:15:00,
2013-03-17 11:23:00,65.5,34.9,30.08,NNW,339,12.0,20.0,32,0.00,,CLR,0.00,VWS V13.01,2013-03-17 18:23:00,
2013-03-17 11:29:00,65.9,35.2,30.08,NNW,333,16.0,20.0,32,0.00,,CLR,0.00,VWS V13.01,2013-03-17 18:29:00,
2013-03-17 11:35:00,66.1,33.8,30.08,NW,323,13.0,20.0,30,0.00,,CLR,0.00,VWS V13.01,2013-03-17 18:35:00,
2013-03-17 11:43:00,66.3,36.4,30.08,NNW,338,9.0,16.0,33,0.00,,CLR,0.00,VWS V13.01,2013-03-17 18:43:00,
2013-03-17 11:49:00,66.7,35.1,30.08,NNW,344,13.0,16.0,31,0.00,,CLR,0.00,VWS V13.01,2013-03-17 18:49:00,
2013-03-17 11:55:00,67.3,35.7,30.07,NNW,340,13.0,17.0,31,0.00,,CLR,0.00,VWS V13.01,2013-03-17 18:55:00,
2013-03-17 12:03:00,67.8,33.5,30.07,NNW,331,11.0,18.0,28,0.00,,CLR,0.00,VWS V13.01,2013-03-17 19:03:00,
2013-03-17 12:09:00,68.0,33.7,30.07,North,9,13.0,18.0,28,0.00,,CLR,0.00,VWS V13.01,2013-03-17 19:09:00,
2013-03-17 12:15:00,68.4,35.8,30.07,NNW,338,10.0,18.0,30,0.00,,CLR,0.00,VWS V13.01,2013-03-17 19:15:00,
2013-03-17 12:21:00,68.9,35.4,30.06,NNW,338,6.0,11.0,29,0.00,,CLR,0.00,VWS V13.01,2013-03-17 19:21:00,
2013-03-17 12:28:00,69.5,37.6,30.06,North,355,6.0,15.0,31,0.00,,CLR,0.00,VWS V13.01,2013-03-17 19:28:00,
2013-03-17 12:34:00,70.2,36.5,30.06,NW,324,6.0,15.0,29,0.00,,CLR,0.00,VWS V13.01,2013-03-17 19:34:00,
2013-03-17 12:40:00,70.3,35.7,30.06,North,350,12.0,15.0,28,0.00,,CLR,0.00,VWS V13.01,2013-03-17 19:40:00,
2013-03-17 12:46:00,70.6,35.0,30.06,North,360,9.0,15.0,27,0.00,,CLR,0.00,VWS V13.01,2013-03-17 19:46:00,
2013-03-17 12:53:00,71.1,36.4,30.05,NNW,331,10.0,11.0,28,0.00,,CLR,0.00,VWS V13.01,2013-03-17 19:53:00,
2013-03-17 12:59:00,71.7,36.0,30.05,NNW,331,10.0,14.0,27,0.00,,CLR,0.00,VWS V13.01,2013-03-17 19:59:00,
2013-03-17 13:05:00,72.1,37.2,30.05,NNW,343,7.0,16.0,28,0.00,,CLR,0.00,VWS V13.01,2013-03-17 20:05:00,
2013-03-17 13:11:00,72.5,36.7,30.05,North,355,10.0,13.0,27,0.00,,CLR,0.00,VWS V13.01,2013-03-17 20:11:00,
2013-03-17 13:17:00,72.9,37.0,30.04,NNW,341,13.0,15.0,27,0.00,,CLR,0.00,VWS V13.01,2013-03-17 20:17:00,
2013-03-17 13:23:00,73.0,36.1,30.04,NW,309,17.0,17.0,26,0.00,,CLR,0.00,VWS V13.01,2013-03-17 20:23:00,
2013-03-17 13:29:00,72.9,37.0,30.04,North,355,10.0,17.0,27,0.00,,CLR,0.00,VWS V13.01,2013-03-17 20:29:00,
2013-03-17 13:35:00,73.0,37.1,30.04,NW,312,11.0,17.0,27,0.00,,CLR,0.00,VWS V13.01,2013-03-17 20:35:00,
2013-03-17 13:40:00,73.1,38.1,30.03,NNW,340,7.0,13.0,28,0.00,,CLR,0.00,VWS V13.01,2013-03-17 20:40:00,
2013-03-17 13:46:00,73.3,37.3,30.03,North,5,10.0,14.0,27,0.00,,CLR,0.00,VWS V13.01,2013-03-17 20:46:00,
2013-03-17 13:52:00,73.7,37.7,30.03,NNW,346,8.0,18.0,27,0.00,,CLR,0.00,VWS V13.01,2013-03-17 20:52:00,
2013-03-17 13:58:00,74.1,39.0,30.03,NNW,345,11.0,18.0,28,0.00,,CLR,0.00,VWS V13.01,2013-03-17 20:58:00,
2013-03-17 14:05:00,74.5,37.4,30.03,North,349,8.0,18.0,26,0.00,,CLR,0.00,VWS V13.01,2013-03-17 21:05:00,
2013-03-17 14:11:00,74.9,37.7,30.02,North,11,3.0,13.0,26,0.00,,CLR,0.00,VWS V13.01,2013-03-17 21:11:00,
2013-03-17 14:17:00,74.9,35.7,30.02,NW,317,9.0,19.0,24,0.00,,CLR,0.00,VWS V13.01,2013-03-17 21:17:00,
2013-03-17 14:23:00,74.6,35.5,30.01,West,273,7.0,11.0,24,0.00,,CLR,0.00,VWS V13.01,2013-03-17 21:23:00,
2013-03-17 14:30:00,74.6,38.5,30.01,North,5,1.0,12.0,27,0.00,,CLR,0.00,VWS V13.01,2013-03-17 21:30:00,
2013-03-17 14:35:00,75.1,37.9,30.01,NNW,333,7.0,12.0,26,0.00,,CLR,0.00,VWS V13.01,2013-03-17 21:35:00,
2013-03-17 14:41:00,75.4,36.1,30.01,NNW,340,9.0,15.0,24,0.00,,CLR,0.00,VWS V13.01,2013-03-17 21:41:00,
2013-03-17 14:47:00,75.4,37.2,30.00,North,9,4.0,15.0,25,0.00,,CLR,0.00,VWS V13.01,2013-03-17 21:47:00,
2013-03-17 14:53:00,75.5,36.2,30.00,North,9,4.0,17.0,24,0.00,,CLR,0.00,VWS V13.01,2013-03-17 21:53:00,
2013-03-17 14:59:00,75.9,35.5,30.00,NNW,341,9.0,17.0,23,0.00,,CLR,0.00,VWS V13.01,2013-03-17 21:59:00,
2013-03-17 15:05:00,76.0,34.5,30.00,NW,311,9.0,17.0,22,0.00,,CLR,0.00,VWS V13.01,2013-03-17 22:05:00,
2013-03-17 15:11:00,75.8,33.1,30.00,NW,320,6.0,15.0,21,0.00,,CLR,0.00,VWS V13.01,2013-03-17 22:11:00,
2013-03-17 15:18:00,75.2,33.8,30.00,NW,312,11.0,17.0,22,0.00,,CLR,0.00,VWS V13.01,2013-03-17 22:18:00,
2013-03-17 15:24:00,74.9,34.6,29.99,NNW,327,7.0,14.0,23,0.00,,CLR,0.00,VWS V13.01,2013-03-17 22:24:00,
2013-03-17 15:30:00,75.0,33.6,29.99,North,355,6.0,14.0,22,0.00,,CLR,0.00,VWS V13.01,2013-03-17 22:30:00,
2013-03-17 15:35:00,74.9,34.6,29.99,North,350,8.0,18.0,23,0.00,,CLR,0.00,VWS V13.01,2013-03-17 22:35:00,
2013-03-17 15:40:00,74.7,33.4,29.98,North,355,6.0,18.0,22,0.00,,CLR,0.00,VWS V13.01,2013-03-17 22:40:00,
2013-03-17 15:46:00,74.4,33.1,29.98,North,11,7.0,18.0,22,0.00,,CLR,0.00,VWS V13.01,2013-03-17 22:46:00,
2013-03-17 15:53:00,74.0,31.6,29.98,North,350,5.0,13.0,21,0.00,,CLR,0.00,VWS V13.01,2013-03-17 22:53:00,
2013-03-17 15:59:00,74.2,31.8,29.98,NNW,341,12.0,15.0,21,0.00,,CLR,0.00,VWS V13.01,2013-03-17 22:59:00,
2013-03-17 16:05:00,74.6,34.4,29.98,NNW,332,6.0,15.0,23,0.00,,CLR,0.00,VWS V13.01,2013-03-17 23:05:00,
2013-03-17 16:11:00,74.9,33.5,29.98,NW,325,6.0,12.0,22,0.00,,CLR,0.00,VWS V13.01,2013-03-17 23:11:00,
2013-03-17 16:17:00,75.2,31.4,29.98,NW,325,7.0,15.0,20,0.00,,CLR,0.00,VWS V13.01,2013-03-17 23:17:00,
2013-03-17 16:23:00,75.3,35.0,29.98,NNW,334,6.0,11.0,23,0.00,,CLR,0.00,VWS V13.01,2013-03-17 23:23:00,
2013-03-17 16:29:00,75.3,33.9,29.98,NNW,342,6.0,19.0,22,0.00,,CLR,0.00,VWS V13.01,2013-03-17 23:29:00,
2013-03-17 16:35:00,75.4,35.1,29.98,North,355,7.0,19.0,23,0.00,,CLR,0.00,VWS V13.01,2013-03-17 23:35:00,
2013-03-17 16:41:00,75.5,34.0,29.98,NNW,348,6.0,10.0,22,0.00,,CLR,0.00,VWS V13.01,2013-03-17 23:41:00,
2013-03-17 16:48:00,75.4,34.0,29.98,NNW,346,10.0,14.0,22,0.00,,CLR,0.00,VWS V13.01,2013-03-17 23:48:00,
2013-03-17 16:54:00,75.2,33.8,29.98,North,360,8.0,15.0,22,0.00,,CLR,0.00,VWS V13.01,2013-03-17 23:54:00,
2013-03-17 17:00:00,75.1,34.8,29.98,North,355,5.0,15.0,23,0.00,,CLR,0.00,VWS V13.01,2013-03-18 00:00:00,
2013-03-17 17:05:00,74.9,32.4,29.98,NW,321,2.0,15.0,21,0.00,,CLR,0.00,VWS V13.01,2013-03-18 00:05:00,
2013-03-17 17:11:00,74.6,33.3,29.97,North,351,8.0,12.0,22,0.00,,CLR,0.00,VWS V13.01,2013-03-18 00:11:00,
2013-03-17 17:17:00,74.3,34.1,29.97,NNE,15,7.0,12.0,23,0.00,,CLR,0.00,VWS V13.01,2013-03-18 00:17:00,
2013-03-17 17:23:00,73.9,31.5,29.97,NNW,342,4.0,9.0,21,0.00,,CLR,0.00,VWS V13.01,2013-03-18 00:23:00,
2013-03-17 17:29:00,73.4,32.3,29.97,NNW,335,11.0,13.0,22,0.00,,CLR,0.00,VWS V13.01,2013-03-18 00:29:00,
2013-03-17 17:35:00,73.2,31.0,29.97,NNW,335,5.0,13.0,21,0.00,,CLR,0.00,VWS V13.01,2013-03-18 00:35:00,
2013-03-17 17:40:00,73.0,32.0,29.97,NNW,340,8.0,8.0,22,0.00,,CLR,0.00,VWS V13.01,2013-03-18 00:40:00,
2013-03-17 17:46:00,72.6,31.6,29.96,North,355,5.0,9.0,22,0.00,,CLR,0.00,VWS V13.01,2013-03-18 00:46:00,
2013-03-17 17:52:00,72.2,31.3,29.96,NNW,340,5.0,8.0,22,0.00,,CLR,0.00,VWS V13.01,2013-03-18 00:52:00,
2013-03-17 17:58:00,71.8,32.0,29.96,NNW,343,5.0,12.0,23,0.00,,CLR,0.00,VWS V13.01,2013-03-18 00:58:00,
2013-03-17 18:04:00,71.5,30.7,29.96,NNW,330,5.0,12.0,22,0.00,,CLR,0.00,VWS V13.01,2013-03-18 01:04:00,
2013-03-17 18:09:00,71.3,31.6,29.96,NNW,333,1.0,6.0,23,0.00,,CLR,0.00,VWS V13.01,2013-03-18 01:09:00,
2013-03-17 18:18:00,70.8,33.3,29.96,NNW,336,8.0,8.0,25,0.00,,CLR,0.00,VWS V13.01,2013-03-18 01:18:00,
2013-03-17 18:24:00,70.3,32.8,29.96,NNW,338,5.0,7.0,25,0.00,,CLR,0.00,VWS V13.01,2013-03-18 01:24:00,
2013-03-17 18:30:00,69.9,33.5,29.96,NNW,338,0.0,7.0,26,0.00,,CLR,0.00,VWS V13.01,2013-03-18 01:30:00,
2013-03-17 18:36:00,69.4,33.1,29.96,NNW,338,0.0,4.0,26,0.00,,CLR,0.00,VWS V13.01,2013-03-18 01:36:00,
2013-03-17 18:43:00,69.0,31.8,29.96,NNW,338,0.0,4.0,25,0.00,,CLR,0.00,VWS V13.01,2013-03-18 01:43:00,
2013-03-17 18:49:00,68.6,31.4,29.96,NNW,338,0.0,4.0,25,0.00,,CLR,0.00,VWS V13.01,2013-03-18 01:49:00,
2013-03-17 18:55:00,68.1,31.0,29.96,NNW,338,0.0,0.0,25,0.00,,CLR,0.00,VWS V13.01,2013-03-18 01:55:00,
2013-03-17 19:03:00,67.5,31.4,29.95,NNW,338,0.0,0.0,26,0.00,,CLR,0.00,VWS V13.01,2013-03-18 02:03:00,
2013-03-17 19:09:00,66.9,30.9,29.96,NNW,338,0.0,0.0,26,0.00,,CLR,0.00,VWS V13.01,2013-03-18 02:09:00,
2013-03-17 19:15:00,66.3,30.4,29.95,NNW,338,0.0,0.0,26,0.00,,CLR,0.00,VWS V13.01,2013-03-18 02:15:00,
2013-03-17 19:21:00,65.8,30.9,29.95,NNW,338,0.0,0.0,27,0.00,,CLR,0.00,VWS V13.01,2013-03-18 02:21:00,
2013-03-17 19:28:00,65.2,31.3,29.96,NNW,338,0.0,0.0,28,0.00,,CLR,0.00,VWS V13.01,2013-03-18 02:28:00,
2013-03-17 19:34:00,64.6,31.6,29.96,NNW,338,0.0,0.0,29,0.00,,CLR,0.00,VWS V13.01,2013-03-18 02:34:00,
2013-03-17 19:40:00,64.0,32.0,29.95,NNW,338,0.0,0.0,30,0.00,,CLR,0.00,VWS V13.01,2013-03-18 02:40:00,
2013-03-17 19:46:00,63.5,32.3,29.95,NNW,338,0.0,0.0,31,0.00,,CLR,0.00,VWS V13.01,2013-03-18 02:46:00,
2013-03-17 19:52:00,62.9,31.8,29.95,NNW,338,0.0,0.0,31,0.00,,CLR,0.00,VWS V13.01,2013-03-18 02:52:00,
2013-03-17 19:58:00,62.4,32.2,29.95,NNW,338,0.0,0.0,32,0.00,,CLR,0.00,VWS V13.01,2013-03-18 02:58:00,
2013-03-17 20:04:00,61.9,36.7,29.96,NNW,338,0.0,0.0,39,0.00,,CLR,0.00,VWS V13.01,2013-03-18 03:04:00,
2013-03-17 20:10:00,61.2,34.1,29.96,NNW,338,0.0,0.0,36,0.00,,CLR,0.00,VWS V13.01,2013-03-18 03:10:00,
2013-03-17 20:16:00,60.6,34.2,29.96,NNW,338,0.0,0.0,37,0.00,,CLR,0.00,VWS V13.01,2013-03-18 03:16:00,
2013-03-17 20:23:00,60.0,33.7,29.96,NNW,338,0.0,0.0,37,0.00,,CLR,0.00,VWS V13.01,2013-03-18 03:23:00,
2013-03-17 20:29:00,59.6,34.0,29.96,NNW,338,0.0,0.0,38,0.00,,CLR,0.00,VWS V13.01,2013-03-18 03:29:00,
2013-03-17 20:35:00,59.4,34.5,29.96,NNW,338,0.0,0.0,39,0.00,,CLR,0.00,VWS V13.01,2013-03-18 03:35:00,
2013-03-17 20:43:00,59.0,34.1,29.96,NNW,338,0.0,0.0,39,0.00,,CLR,0.00,VWS V13.01,2013-03-18 03:43:00,
2013-03-17 20:49:00,58.7,33.8,29.96,NNW,338,0.0,0.0,39,0.00,,CLR,0.00,VWS V13.01,2013-03-18 03:49:00,
2013-03-17 20:56:00,57.9,37.3,29.96,SSW,198,2.0,8.0,46,0.00,,CLR,0.00,VWS V13.01,2013-03-18 03:56:00,
2013-03-17 21:00:00,57.4,35.7,29.97,SSW,198,1.0,8.0,44,0.00,,CLR,0.00,VWS V13.01,2013-03-18 04:00:00,
2013-03-17 21:02:00,57.3,36.2,29.97,SSW,198,0.0,8.0,45,0.00,,CLR,0.00,VWS V13.01,2013-03-18 04:02:00,
2013-03-17 21:05:00,57.0,37.0,29.97,SSW,200,0.0,8.0,47,0.00,,CLR,0.00,VWS V13.01,2013-03-18 04:05:00,
2013-03-17 21:06:00,56.9,36.9,29.97,SSW,200,0.0,1.0,47,0.00,,CLR,0.00,VWS V13.01,2013-03-18 04:06:00,
2013-03-17 21:13:00,56.6,36.6,29.98,West,276,7.0,10.0,47,0.00,,CLR,0.00,VWS V13.01,2013-03-18 04:13:00,
2013-03-17 21:19:00,56.4,36.4,29.98,West,278,1.0,10.0,47,0.00,,CLR,0.00,VWS V13.01,2013-03-18 04:19:00,
2013-03-17 21:25:00,56.4,35.3,29.98,West,278,0.0,4.0,45,0.00,,CLR,0.00,VWS V13.01,2013-03-18 04:25:00,
2013-03-17 21:31:00,56.5,36.0,29.98,West,278,0.0,4.0,46,0.00,,CLR,0.00,VWS V13.01,2013-03-18 04:31:00,
2013-03-17 21:38:00,56.5,36.5,29.98,West,278,0.0,0.0,47,0.00,,CLR,0.00,VWS V13.01,2013-03-18 04:38:00,
2013-03-17 21:44:00,56.4,37.5,29.98,West,278,0.0,4.0,49,0.00,,CLR,0.00,VWS V13.01,2013-03-18 04:44:00,
2013-03-17 21:50:00,56.3,37.9,29.98,West,278,0.0,4.0,50,0.00,,CLR,0.00,VWS V13.01,2013-03-18 04:50:00,
2013-03-17 21:56:00,56.1,37.7,29.98,West,278,0.0,0.0,50,0.00,,CLR,0.00,VWS V13.01,2013-03-18 04:56:00,
2013-03-17 22:00:00,55.8,38.5,29.98,North,0,0.0,0.0,52,0.00,,CLR,0.00,VWS V13.01,2013-03-18 05:00:00,
2013-03-17 22:15:00,54.6,39.2,29.98,West,270,0.0,2.0,56,0.00,,CLR,0.00,VWS V13.01,2013-03-18 05:15:00,
2013-03-17 22:30:00,53.5,39.1,29.99,West,270,0.0,1.0,58,0.00,,CLR,0.00,VWS V13.01,2013-03-18 05:30:00,
2013-03-17 22:45:00,52.8,38.9,29.98,West,270,0.0,0.0,59,0.00,,CLR,0.00,VWS V13.01,2013-03-18 05:45:00,
2013-03-17 23:00:00,52.1,38.7,29.99,West,270,0.0,0.0,60,0.00,,CLR,0.00,VWS V13.01,2013-03-18 06:00:00,
2013-03-17 23:15:00,51.3,39.2,29.99,West,270,0.0,0.0,63,0.00,,CLR,0.00,VWS V13.01,2013-03-18 06:15:00,
2013-03-17 23:30:00,50.4,38.3,29.99,West,270,0.0,0.0,63,0.00,,CLR,0.00,VWS V13.01,2013-03-18 06:30:00,
2013-03-17 23:45:00,49.6,37.9,29.99,West,270,0.0,0.0,64,0.00,,CLR,0.00,VWS V13.01,2013-03-18 06:45:00,